Theta_e
315 315 316 317 318 320 320 322 326 328 335 337 338 338 338 338 336 335 335 336 336 334
316 317 318 319 320 320 321 322 324 327 328 330 337 338 337 335 335 335 335 336 337 336
314 316 317 318 319 320 321 324 325 326 328 329 330 332 331 331 334 335 336 337 337 337
314 316 317 318 319 319 321 323 326 328 330 328 328 328 329 330 331 333 334 336 337 337
314 314 316 317 318 321 323 325 326 325 322 322 323 324 324 324 326 328 328 331 333 336
312 313 315 316 318 321 321 321 320 318 316 317 318 319 320 321 322 325 327 330 331 333
310 310 311 313 314 317 319 316 314 315 315 316 317 317 317 319 321 323 326 327 328 327
310 310 310 311 313 315 314 313 313 313 314 316 316 314 316 318 320 319 318 319 321 325
308 309 309 310 311 311 311 311 311 312 313 312 313 307 306 311 314 315 316 316 319 322
308 308 309 310 309 309 308 308 309 309 310 310 310 303 301 303 313 313 314 315 316 317
307 307 308 308 308 307 307 306 307 307 308 307 308 301 299 300 310 311 313 314 314 315
306 306 307 306 306 306 305 304 305 306 307 306 306 300 298 301 308 309 310 312 314 319
305 305 305 305 305 305 304 305 305 305 305 304 305 298 297 300 307 308 311 315 318 308
302 304 305 305 305 305 304 304 303 304 305 306 306 305 297 298 308 308 308 308 310 316
Wind_Speed
8 5 5 6 4 4 3 3 4 5 3 3 3 3 2 3 6 8 11 9 6 6
7 7 7 6 5 4 4 3 4 4 5 5 4 3 3 2 2 5 6 5 5 6
8 7 6 5 5 5 5 5 5 4 4 4 5 4 4 1 1 2 3 2 6 6
7 7 6 5 5 5 4 5 5 5 6 6 5 5 4 3 2 1 3 4 6 8
6 7 7 6 6 5 6 6 7 6 6 5 4 4 4 2 1 2 3 5 6 7
6 7 8 7 6 7 7 7 7 7 7 6 5 5 3 1 2 3 4 5 6 7
7 8 8 8 8 9 9 9 7 6 6 5 5 4 2 2 3 3 4 4 5 8
10 7 5 6 8 9 9 7 6 6 5 4 4 4 4 4 4 4 5 5 6 8
5 6 7 7 9 9 9 8 8 7 6 6 4 7 8 6 5 5 5 7 7 7
1 4 6 7 7 7 6 5 6 6 7 6 5 8 9 9 5 5 7 8 8 9
4 4 5 5 6 6 5 7 6 6 6 6 6 10 10 10 6 6 8 9 11 11
5 5 5 5 6 5 5 5 6 5 6 6 6 11 9 7 5 7 9 9 11 11
6 6 7 6 6 6 4 8 6 7 7 8 6 9 10 7 4 7 7 8 9 12
8 8 8 9 7 6 9 8 8 7 6 6 7 7 12 12 6 8 9 8 8 9
Wind_Direction
155 156 164 169 173 190 199 220 213 190 201 232 233 228 199 195 198 197 222 222 212 224
165 154 168 172 165 174 187 227 216 197 179 196 162 174 187 201 206 211 228 237 228 228
173 162 146 139 177 185 184 185 176 162 140 108 103 103 104 54 294 284 290 256 250 242
171 164 144 173 187 178 180 182 163 148 136 126 116 105 95 82 352 326 286 276 255 256
187 152 164 187 191 183 182 170 161 153 141 137 131 120 108 83 324 290 294 277 266 265
193 175 184 185 182 175 179 180 172 165 163 160 154 140 153 154 280 283 272 281 296 297
226 209 190 183 183 182 185 178 178 180 178 163 148 152 178 211 247 267 264 271 270 275
215 203 188 199 197 185 179 186 170 166 175 162 175 189 201 212 233 255 277 280 280 274
210 182 190 194 201 177 184 179 171 178 173 181 210 213 220 224 240 247 248 263 270 268
290 253 196 172 169 180 189 174 200 183 173 189 204 230 240 240 250 256 254 254 264 276
276 236 232 183 185 180 182 195 196 206 196 188 215 212 218 230 245 250 251 257 266 269
300 278 252 231 216 213 188 195 195 202 208 201 220 218 229 209 225 236 255 255 262 263
246 258 261 242 228 223 205 219 211 215 204 204 225 216 229 239 239 241 250 254 254 254
236 238 236 243 235 227 232 227 217 214 205 203 205 213 216 231 239 252 262 261 265 260